Location: The Jewett Observatory
(46.7288°N, 117.1525°W)
Time: 06:33:19
(UTC-08:00)

Meteor 1-28 Rocket - Visible Passes

Search period start: 28 November 2014 00:00
Search period end: 08 December 2014 00:00
Orbit: 513 x 533 km, 97.2° (Epoch: 27 November)

Date Brightness Start Highest point End Pass type
(mag) Time Alt. Az. Time Alt. Az. Time Alt. Az.
29 Nov 4.9 06:29:28 10° SE 06:32:54 34° ENE 06:36:23 10° N visible
30 Nov 5.4 06:17:23 10° SE 06:20:33 26° ENE 06:23:45 10° N visible
01 Dec 5.8 06:05:26 10° ESE 06:08:12 20° ENE 06:11:00 10° NNE visible
02 Dec 6.0 05:53:39 10° E 05:55:52 15° ENE 05:58:06 10° NNE visible
03 Dec 6.2 05:42:15 10° E 05:43:33 12° ENE 05:44:51 10° NE visible
06 Dec 4.5 06:36:15 10° SE 06:39:51 42° ENE 06:43:29 10° N visible
07 Dec 5.0 06:24:02 10° SE 06:27:25 31° ENE 06:30:50 10° N visible
